Location: The Saddle
(36.8333°N, 80.3417°W)
Time: 10:37:19
(UTC-04:00)

CUBEBUG 2 - Visible Passes

Search period start: 21 March 2023 00:00
Search period end: 31 March 2023 00:00
Orbit: 581 x 686 km, 97.8° (Epoch: 21 March)

Date Brightness Start Highest point End Pass type
(mag) Time Alt. Az. Time Alt. Az. Time Alt. Az.
23 Mar ? 04:18:06 10° N 04:18:19 11° N 04:18:19 11° N visible
24 Mar ? 04:39:50 10° N 04:40:03 11° NNW 04:40:03 11° NNW visible
26 Mar ? 03:45:42 10° NNE 03:46:02 12° NNE 03:46:02 12° NNE visible
27 Mar ? 04:07:03 10° N 04:07:43 14° N 04:07:43 14° N visible
28 Mar ? 04:28:37 10° N 04:29:24 14° N 04:29:24 14° N visible
29 Mar ? 04:50:26 10° NNW 04:51:05 13° NNW 04:51:05 13° NNW visible
30 Mar ? 03:34:40 10° NNE 03:35:17 14° NNE 03:35:17 14° NNE visible
